Home   Weather   Chișinău   Past weeks

Flag for Moldova Past Weather in Chișinău, Moldova — Yesterday and Last 2 Weeks

41 °F


Feels Like: 37 °F
Forecast: 39 / 49 °F
Wind: 6 mph from East

Location: Chisinau International Airport

Current Time: Oct 24, 2016 at 4:33:33 AM

Latest Report: Oct 24, 2016 at 4:00 AM

Visibility: N/A

Pressure: 30.42 "Hg

Humidity: 87%

Dew Point: 37 °F

Location of ChișinăuLocation

Past Weather in Chișinău — Graph


Chișinău Temperature Yesterday

Maximum temperature yesterday: 50 °F (at 2:00 PM)
Minimum temperature yesterday: 45 °F (at 6:00 AM)
Average temperature yesterday: 47 °F

High & Low Weather Summary for the Past Weeks

High59 °F (Oct 10, 1:30 PM)100% (Oct 12, 4:00 PM)30.66 "Hg (Oct 12, 4:00 PM)
Low27 °F (Oct 18, 6:30 AM)39% (Oct 10, 2:00 PM)29.62 "Hg (Oct 13, 3:30 AM)
Average43 °F81%30.23 "Hg
* Reported Oct 9 3:00 AM — Oct 24 3:30 AM, Chișinău, Weather by CustomWeather, © 2016

Note: Actual official high and low records may vary slightly from our data, if they occured in-between our weather recording intervals... More about our weather records


Chișinău Weather History for the Previous 24 Hours

Scroll right to see more
Time TempWeatherWind HumidityBarometerVisibility
3:30 AM
Mon, Oct 24
41 °FOvercast.6 mph87%30.42 "HgN/A
3:00 AM43 °FOvercast.3 mph81%30.39 "HgN/A
2:30 AM41 °FPassing clouds.7 mph87%30.39 "HgN/A
2:00 AM43 °FPassing clouds.7 mph81%30.39 "HgN/A
1:30 AM43 °FOvercast.7 mph87%30.39 "HgN/A
1:00 AM45 °FOvercast.6 mph81%30.39 "HgN/A
12:30 AM45 °FOvercast.7 mph81%30.39 "HgN/A
12:00 AM45 °FOvercast.6 mph81%30.39 "HgN/A
11:30 PM
Sun, Oct 23
45 °FOvercast.8 mph81%30.39 "HgN/A
11:00 PM45 °FOvercast.9 mph81%30.39 "HgN/A
10:30 PM46 °FOvercast.12 mph76%30.36 "HgN/A
10:00 PM46 °FOvercast.12 mph76%30.36 "HgN/A
9:30 PM46 °FOvercast.13 mph82%30.36 "HgN/A
9:00 PM46 °FPassing clouds.7 mph82%30.36 "HgN/A
8:30 PM45 °FPassing clouds.6 mph87%30.36 "HgN/A
8:00 PM46 °FPassing clouds.7 mph82%30.36 "HgN/A
7:30 PM46 °FPassing clouds.6 mph82%30.36 "HgN/A
7:00 PM48 °FPassing clouds.7 mph82%30.33 "HgN/A
6:30 PM48 °FPartly cloudy.10 mph82%30.33 "HgN/A
6:00 PM50 °FMostly cloudy.7 mph76%30.33 "HgN/A
5:30 PM50 °FPartly sunny.8 mph82%30.30 "HgN/A
5:00 PM50 °FPartly sunny.9 mph82%30.30 "HgN/A
4:30 PM50 °FPartly sunny.8 mph82%30.30 "HgN/A
4:00 PM50 °FBroken clouds.8 mph82%30.30 "HgN/A
3:30 PM50 °FPartly sunny.8 mph82%30.30 "HgN/A
3:00 PM50 °FPartly sunny.9 mph82%30.27 "HgN/A
2:30 PM50 °FPartly sunny.12 mph82%30.27 "HgN/A
2:00 PM50 °FBroken clouds.10 mph82%30.30 "HgN/A
1:30 PM48 °FPartly sunny.12 mph87%30.30 "HgN/A
1:00 PM46 °FOvercast.8 mph87%30.30 "HgN/A
12:30 PM46 °FLow clouds.9 mph93%30.30 "HgN/A
12:00 PM46 °FLow clouds.8 mph87%30.30 "HgN/A
11:30 AM46 °FLow clouds.8 mph87%30.30 "HgN/A
11:00 AM46 °FLow clouds.9 mph87%30.27 "Hg5 mi
10:30 AM45 °FLow clouds.9 mph93%30.27 "Hg4 mi
10:00 AM45 °FDrizzle. Low clouds.10 mph93%30.27 "Hg4 mi
9:30 AM45 °FLow clouds.9 mph100%30.27 "Hg4 mi
9:00 AM45 °FFog.9 mph100%30.24 "Hg2 mi
8:30 AM45 °FFog.8 mph100%30.24 "Hg2 mi
8:00 AM45 °FFog.7 mph100%30.24 "Hg2 mi
7:30 AM45 °FFog.7 mph100%30.24 "Hg2 mi
7:00 AM45 °FFog.8 mph100%30.21 "Hg2 mi
6:30 AM45 °FFog.8 mph100%30.21 "Hg2 mi
6:00 AM45 °FFog.7 mph100%30.21 "Hg2 mi
5:30 AM46 °FFog.7 mph93%30.21 "Hg2 mi
5:00 AM46 °FFog.7 mph93%30.21 "Hg2 mi
4:30 AM46 °FFog.8 mph93%30.21 "Hg2 mi
4:00 AM46 °FFog.8 mph93%30.21 "Hg3 mi
Weather by CustomWeather, © 2016

See weather overviewHow to use our weather pages